Location: Newark
(16.3678°N, 77.8722°E)
Time: 18:05:18
(UTC+00:00)

Explorer 7 - Visible Passes

Search period start: 14 December 2019 00:00
Search period end: 24 December 2019 00:00
Orbit: 485 x 680 km, 50.3° (Epoch: 13 December)

Date Brightness Start Highest point End Pass type
(mag) Time Alt. Az. Time Alt. Az. Time Alt. Az.
21 Dec 9.2 14:23:30 10° NW 14:24:56 19° NNW 14:24:56 19° NNW visible
22 Dec 8.9 12:49:39 10° N 12:52:24 15° NE 12:55:08 10° ENE visible
22 Dec 8.3 14:28:28 10° NW 14:31:42 39° WNW 14:31:42 39° WNW visible
23 Dec 8.2 12:53:28 10° N 12:57:31 26° NE 13:01:30 10° ESE visible
23 Dec 9.0 14:33:52 10° WNW 14:38:03 29° SW 14:39:23 25° SSW visible
